User: anonymous   Login
Location: Unspecified
(0.0000°N, 0.0000°E)
Time: 18:55:33
(UTC+00:00)
Language:

EXOCUBE - Orbit

View from above orbital plane
View from above orbital plane
View from above satellite
View from above satellite

Ground track
Ground track

The orbit data is extracted from the following two-line orbital elements,

1 40380U 15003E   17145.79466845 +.00001507 +00000-0 +73690-4 0  9993
2 40380 099.1275 321.9973 0147079 087.5974 274.2081 15.11410576127401
Epoch (UTC): 25 May 2017 19:04:19
Eccentricity: 0.0147079
inclination: 99.1275°
perigee height: 430 km
apogee height: 633 km
right ascension of ascending node: 321.9973°
argument of perigee: 87.5974°
revolutions per day: 15.11410576
mean anomaly at epoch: 274.2081°
orbit number at epoch: 12740

The dashed part of the orbit path shows where the satellite is in the earth's shadow,  

DLR